Location: Carrières
(48.9495°N, 2.0407°E)
Time: 04:52:47
(UTC+00:00)

Vanguard 1 Rocket - Pass Details

Date: 20 April 2024
Orbit: 650 x 4220 km, 34.3° (Epoch: 27 May)

Event Time Altitude Azimuth Distance (km) Brightness Sun altitude
Rises 21:18:17 0° 252° (WSW) 3,631 10.8 -20.5°
Reaches altitude 10° 21:20:46 10° 239° (WSW) 2,965 10.1 -20.7°
Maximum altitude 21:26:57 29° 182° (S) 2,551 9.2 -21.4°
Enters shadow 21:28:35 28° 166° (SSE) 2,795 9.3 -21.5°
